Yellowstone Natl Park, WY

5:07 AM MST on February 25, 2017 (GMT -0700)
Yellowstone

Weather History for KP60 - November, 2013

Change the Weather History Date:

Wednesday, November 6, 2013

  Actual Average Record
Temperature  
Mean Temperature 24 °F 27 °F  
Max Temperature 29 °F 38 °F 57 °F (1999)
Min Temperature 19 °F 16 °F -10 °F (2003)
Degree Days  
Heating Degree Days 41 38  
Month to date heating degree days 267 222  
Since 1 July heating degree days 2233 2270  
Cooling Degree Days 0 0  
Month to date cooling degree days 0 0  
Year to date cooling degree days 0 0  
Moisture  
Dew Point 19 °F    
Average Humidity 76    
Maximum Humidity 88    
Minimum Humidity 63    
Precipitation  
Precipitation 0.00 in 0.07 in 0.84 in (2001)
Month to date precipitation 0.63 0.44  
Year to date precipitation 18.49 17.16  
Sea Level Pressure  
Sea Level Pressure 30.36 in    
Wind  
Wind Speed 5 mph (West)    
Max Wind Speed 15 mph    
Max Gust Speed 24 mph    
T = Trace of Precipitation, MM = Missing Value Source: NWS Daily Summary

Daily Weather History Graph

Daily Weather History Graph

Search for Another Location

Airport or City:

Trip Planner

Search our weather history database for the weather conditions in past years. The results will help you decide how hot, cold, wet, or windy it might be!

Date:

Astronomy

Nov. 06, 2013 Rise Set
Actual Time 7:06 AM MST 5:03 PM MST
Civil Twilight 6:35 AM MST 5:34 PM MST
Nautical Twilight 6:00 AM MST 6:09 PM MST
Astronomical Twilight 5:26 AM MST 6:43 PM MST
Moon 10:27 AM MST (11/6) 8:08 PM MST (11/6)
Length of Visible Light 10h 58m
Length of Day
9h 57m
Waxing Crescent, 14% of the Moon is Illuminated
Nov 6
Waxing Crescent
Nov 9
First Quarter
Nov 17
Full
Nov 25
Last Quarter
Dec 2
New

Hourly Weather History & Observations

Time (MST) Temp. Windchill Dew Point Humidity Pressure Visibility Wind Dir Wind Speed Gust Speed Precip Events Conditions
12:56 AM 19.0 °F 13.9 °F 15.1 °F 85% 30.17 in - Variable 3.5 mph - N/A   Unknown
1:56 AM 19.0 °F 13.9 °F 15.1 °F 85% 30.30 in - Variable 3.5 mph - N/A   Unknown
2:56 AM 19.9 °F 12.1 °F 15.1 °F 81% 30.30 in - Variable 5.8 mph - N/A   Unknown
3:56 AM 19.9 °F - 16.0 °F 85% 30.30 in - Calm Calm - N/A   Unknown
4:56 AM 19.9 °F - 16.0 °F 85% 30.31 in - Calm Calm - N/A   Unknown
5:56 AM 19.9 °F - 16.0 °F 85% 30.31 in - Calm Calm - N/A   Unknown
6:56 AM 19.9 °F 13.4 °F 16.0 °F 85% 30.33 in - West 4.6 mph - N/A   Unknown
7:56 AM 21.0 °F 14.6 °F 17.1 °F 85% 30.34 in - West 4.6 mph - N/A   Unknown
8:56 AM 23.0 °F 17.0 °F 19.0 °F 85% 30.35 in - WNW 4.6 mph - N/A   Unknown
9:56 AM 24.1 °F 19.7 °F 19.9 °F 84% 30.35 in - Variable 3.5 mph - N/A   Unknown
10:56 AM 26.1 °F 16.8 °F 19.0 °F 75% 30.35 in - West 9.2 mph 18.4 mph N/A   Unknown
11:56 AM 28.0 °F 18.1 °F 19.0 °F 69% 30.34 in - West 11.5 mph 18.4 mph N/A   Unknown
12:56 PM 28.0 °F 19.3 °F 18.0 °F 66% 30.35 in - West 9.2 mph 20.7 mph N/A   Unknown
1:56 PM 28.0 °F 20.8 °F 18.0 °F 66% 30.36 in - Variable 6.9 mph - N/A   Unknown
2:56 PM 28.0 °F 18.6 °F 19.0 °F 69% 30.37 in - WSW 10.4 mph 17.3 mph N/A   Unknown
3:56 PM 26.1 °F 16.8 °F 19.9 °F 78% 30.40 in - WSW 9.2 mph - N/A   Unknown
4:56 PM 25.0 °F 20.7 °F 19.0 °F 78% 30.41 in - Variable 3.5 mph - N/A   Unknown
5:56 PM 25.0 °F 19.3 °F 19.9 °F 81% 30.43 in - Variable 4.6 mph - N/A   Unknown
6:56 PM 25.0 °F 18.1 °F 19.9 °F 81% 30.44 in - West 5.8 mph - N/A   Unknown
7:56 PM 25.0 °F 18.1 °F 21.0 °F 85% 30.44 in - Variable 5.8 mph - N/A   Unknown
8:56 PM 26.1 °F 19.4 °F 21.9 °F 84% 30.42 in - West 5.8 mph - N/A   Unknown
9:56 PM 27.0 °F 23.0 °F 23.0 °F 85% 30.41 in - West 3.5 mph - N/A   Unknown
10:56 PM 28.0 °F 24.2 °F 24.1 °F 85% 30.40 in - Variable 3.5 mph - N/A   Unknown
11:56 PM 28.9 °F 23.9 °F 25.0 °F 85% 30.38 in - Variable 4.6 mph - N/A   Unknown